Weather History for KAVK - June, 2014

Change the Weather History Date:

Monday, June 16, 2014

  Actual Average Record
Temperature  
Mean Temperature 82 °F -  
Max Temperature 93 °F 91 °F 109 °F (1952)
Min Temperature 71 °F 64 °F 50 °F (1989)
Cooling Degree Days 17    
Growing Degree Days 32 (Base 50)    
Moisture  
Dew Point 69 °F    
Average Humidity 66    
Maximum Humidity 89    
Minimum Humidity 41    
Precipitation  
Precipitation 0.00 in - - ()
Sea Level Pressure  
Sea Level Pressure 29.81 in    
Wind  
Wind Speed 18 mph (South)    
Max Wind Speed 33 mph    
Max Gust Speed 44 mph    
Visibility 10 miles    
Events      
Averages and records for this station are not official NWS values.
T = Trace of Precipitation, MM = Missing Value Source: NWS Daily Summary

Daily Weather History Graph

Daily Weather History Graph

Search for Another Location

Airport or City:

Trip Planner

Search our weather history database for the weather conditions in past years. The results will help you decide how hot, cold, wet, or windy it might be!

Date:

Astronomy

Jun. 16, 2014 Rise Set
Actual Time 6:15 AM CDT 8:55 PM CDT
Civil Twilight 5:44 AM CDT 9:26 PM CDT
Nautical Twilight 5:06 AM CDT 10:04 PM CDT
Astronomical Twilight 4:23 AM CDT 10:47 PM CDT
Moon 11:54 PM CDT (6/16) 10:15 AM CDT (6/16)
Length of Visible Light 15h 41m
Length of Day
14h 40m
Waning Gibbous, 83% of the Moon is Illuminated
Jun 16
Waning Gibbous
Jun 19
Last Quarter
Jun 27
New
Jul 5
First Quarter
Jul 12
Full

Hourly Weather History & Observations

Time (CDT) Temp. Heat Index Dew Point Humidity Pressure Visibility Wind Dir Wind Speed Gust Speed Precip Events Conditions
12:10 AM 75.2 °F - 71.6 °F 89% 29.88 in 10.0 mi SSE 13.8 mph - N/A   Partly Cloudy
12:30 AM 75.2 °F - 71.6 °F 89% 29.89 in 10.0 mi SSE 15.0 mph - N/A   Partly Cloudy
12:55 AM 75.2 °F - 71.6 °F 89% 29.89 in 10.0 mi SSE 11.5 mph 17.3 mph N/A   Overcast
1:10 AM 75.2 °F - 71.6 °F 89% 29.88 in 10.0 mi SSE 12.7 mph - N/A   Mostly Cloudy
1:30 AM 75.2 °F - 71.6 °F 89% 29.87 in 10.0 mi SSE 12.7 mph - N/A   Mostly Cloudy
1:50 AM 75.2 °F - 71.6 °F 89% 29.87 in 10.0 mi SSE 13.8 mph - N/A   Mostly Cloudy
2:10 AM 75.2 °F - 71.6 °F 89% 29.87 in 10.0 mi SSE 12.7 mph 18.4 mph N/A   Scattered Clouds
2:30 AM 75.2 °F - 69.8 °F 83% 29.87 in 10.0 mi South 13.8 mph - N/A   Clear
2:50 AM 75.2 °F - 69.8 °F 83% 29.86 in 10.0 mi SSE 15.0 mph - N/A   Clear
3:10 AM 75.2 °F - 69.8 °F 83% 29.86 in 10.0 mi SSE 12.7 mph - N/A   Clear
3:30 AM 73.4 °F - 69.8 °F 88% 29.86 in 10.0 mi SSE 11.5 mph - N/A   Clear
3:50 AM 73.4 °F - 69.8 °F 88% 29.86 in 10.0 mi South 12.7 mph - N/A   Clear
4:10 AM 73.4 °F - 69.8 °F 88% 29.86 in 10.0 mi SSE 10.4 mph - N/A   Clear
4:30 AM 73.4 °F - 69.8 °F 88% 29.86 in 10.0 mi SSE 11.5 mph - N/A   Clear
4:55 AM 73.4 °F - 69.8 °F 88% 29.86 in 10.0 mi SSE 12.7 mph - N/A   Clear
5:15 AM 73.4 °F - 68.0 °F 83% 29.86 in 10.0 mi SSE 12.7 mph - N/A   Clear
5:30 AM 73.4 °F - 68.0 °F 83% 29.86 in 10.0 mi SSE 13.8 mph - N/A   Partly Cloudy
5:50 AM 71.6 °F - 68.0 °F 88% 29.86 in 10.0 mi SSE 10.4 mph - N/A   Scattered Clouds
6:10 AM 71.6 °F - 68.0 °F 88% 29.86 in 10.0 mi SSE 9.2 mph - N/A   Partly Cloudy
6:30 AM 71.6 °F - 68.0 °F 88% 29.86 in 10.0 mi SSE 10.4 mph - N/A   Clear
6:50 AM 71.6 °F - 68.0 °F 88% 29.87 in 10.0 mi SSE 16.1 mph - N/A   Clear
7:10 AM 73.4 °F - 69.8 °F 88% 29.87 in 9.0 mi SSE 12.7 mph - N/A   Clear
7:30 AM 73.4 °F - 69.8 °F 88% 29.86 in 9.0 mi SSE 13.8 mph 19.6 mph N/A   Clear
7:50 AM 75.2 °F - 69.8 °F 83% 29.86 in 10.0 mi SSE 17.3 mph - N/A   Clear
8:10 AM 77.0 °F - 69.8 °F 78% 29.86 in 10.0 mi South 20.7 mph - N/A   Clear
8:30 AM 77.0 °F - 69.8 °F 78% 29.85 in 9.0 mi South 21.9 mph 29.9 mph N/A   Clear
8:50 AM 77.0 °F - 69.8 °F 78% 29.85 in 10.0 mi South 17.3 mph 27.6 mph N/A   Clear
9:10 AM 80.6 °F 83.9 °F 69.8 °F 70% 29.85 in 10.0 mi South 19.6 mph 27.6 mph N/A   Clear
9:30 AM 82.4 °F 86.3 °F 69.8 °F 66% 29.85 in 10.0 mi South 23.0 mph 26.5 mph N/A   Clear
9:50 AM 82.4 °F 85.4 °F 68.0 °F 62% 29.84 in 9.0 mi South 23.0 mph 32.2 mph N/A   Clear
10:10 AM 84.2 °F 88.4 °F 69.8 °F 62% 29.83 in 10.0 mi South 25.3 mph 31.1 mph N/A   Clear
10:30 AM 84.2 °F 88.4 °F 69.8 °F 62% 29.84 in 10.0 mi South 23.0 mph 31.1 mph N/A   Clear
10:50 AM 84.2 °F 88.4 °F 69.8 °F 62% 29.83 in 10.0 mi South 26.5 mph 29.9 mph N/A   Clear
11:10 AM 86.0 °F 90.4 °F 69.8 °F 58% 29.83 in 10.0 mi South 21.9 mph 29.9 mph N/A   Clear
11:30 AM 86.0 °F 89.4 °F 68.0 °F 55% 29.83 in 10.0 mi South 26.5 mph 35.7 mph N/A   Clear
11:50 AM 86.0 °F 89.4 °F 68.0 °F 55% 29.82 in 10.0 mi South 25.3 mph 36.8 mph N/A   Clear
12:10 PM 87.8 °F 92.6 °F 69.8 °F 55% 29.82 in 10.0 mi South 29.9 mph 35.7 mph N/A   Clear
12:30 PM 86.0 °F 90.4 °F 69.8 °F 58% 29.81 in 10.0 mi South 26.5 mph 39.1 mph N/A   Clear
12:50 PM 87.8 °F 92.6 °F 69.8 °F 55% 29.80 in 10.0 mi South 29.9 mph 40.3 mph N/A   Clear
1:10 PM 87.8 °F 92.6 °F 69.8 °F 55% 29.80 in 10.0 mi South 32.2 mph 40.3 mph N/A   Clear
1:30 PM 91.4 °F 98.4 °F 71.6 °F 52% 29.80 in 9.0 mi South 25.3 mph 36.8 mph N/A   Clear
1:50 PM 91.4 °F 96.8 °F 69.8 °F 49% 29.79 in 10.0 mi South 33.4 mph 38.0 mph N/A   Clear
2:10 PM 91.4 °F 96.8 °F 69.8 °F 49% 29.79 in 9.0 mi South 33.4 mph 41.4 mph N/A   Clear
2:50 PM 91.4 °F 95.4 °F 68.0 °F 46% 29.77 in 10.0 mi South 28.8 mph 40.3 mph N/A   Clear
3:30 PM 93.2 °F 97.7 °F 68.0 °F 44% 29.76 in 10.0 mi South 28.8 mph 40.3 mph N/A   Clear
3:50 PM 93.2 °F 97.7 °F 68.0 °F 44% 29.76 in 10.0 mi South 29.9 mph 40.3 mph N/A   Clear
4:10 PM 93.2 °F 97.7 °F 68.0 °F 44% 29.76 in 10.0 mi South 29.9 mph 40.3 mph N/A   Clear
4:35 PM 93.2 °F 97.7 °F 68.0 °F 44% 29.75 in 9.0 mi South 26.5 mph 39.1 mph N/A   Clear
4:50 PM 93.2 °F 97.7 °F 68.0 °F 44% 29.75 in 10.0 mi South 28.8 mph 38.0 mph N/A   Clear
5:15 PM 93.2 °F 97.7 °F 68.0 °F 44% 29.75 in 10.0 mi South 31.1 mph 42.6 mph N/A   Clear
5:30 PM 93.2 °F 96.2 °F 66.2 °F 41% 29.74 in 10.0 mi South 29.9 mph 40.3 mph N/A   Clear
5:50 PM 93.2 °F 96.2 °F 66.2 °F 41% 29.74 in 10.0 mi South 32.2 mph 42.6 mph N/A   Clear
6:10 PM 93.2 °F 96.2 °F 66.2 °F 41% 29.73 in 10.0 mi South 25.3 mph 41.4 mph N/A   Clear
6:30 PM 93.2 °F 96.2 °F 66.2 °F 41% 29.73 in 10.0 mi South 27.6 mph 43.7 mph N/A   Clear
6:50 PM 91.4 °F 94.0 °F 66.2 °F 43% 29.73 in 10.0 mi South 29.9 mph 39.1 mph N/A   Clear
7:10 PM 91.4 °F 94.0 °F 66.2 °F 43% 29.73 in 10.0 mi South 21.9 mph 41.4 mph N/A   Clear
7:30 PM 89.6 °F 92.2 °F 66.2 °F 46% 29.73 in 10.0 mi South 26.5 mph 38.0 mph N/A   Clear
7:50 PM 89.6 °F 92.2 °F 66.2 °F 46% 29.73 in 10.0 mi South 24.2 mph 33.4 mph N/A   Clear
8:10 PM 87.8 °F 91.4 °F 68.0 °F 52% 29.73 in 10.0 mi South 24.2 mph 29.9 mph N/A   Clear
8:50 PM 86.0 °F 89.4 °F 68.0 °F 55% 29.74 in 10.0 mi South 25.3 mph 31.1 mph N/A   Clear
9:10 PM 84.2 °F 88.4 °F 69.8 °F 62% 29.75 in 10.0 mi South 23.0 mph 29.9 mph N/A   Clear
9:30 PM 84.2 °F 87.3 °F 68.0 °F 58% 29.75 in 10.0 mi South 23.0 mph 32.2 mph N/A   Clear
9:50 PM 84.2 °F 87.3 °F 68.0 °F 58% 29.76 in 10.0 mi South 18.4 mph 29.9 mph N/A   Scattered Clouds
10:10 PM 82.4 °F 85.4 °F 68.0 °F 62% 29.76 in 10.0 mi South 18.4 mph 25.3 mph N/A   Mostly Cloudy
10:30 PM 82.4 °F 85.4 °F 68.0 °F 62% 29.76 in 10.0 mi South 20.7 mph 25.3 mph N/A   Mostly Cloudy
10:50 PM 82.4 °F 85.4 °F 68.0 °F 62% 29.77 in 10.0 mi South 19.6 mph 25.3 mph N/A   Scattered Clouds
11:15 PM 82.4 °F 84.6 °F 66.2 °F 58% 29.77 in 10.0 mi South 18.4 mph 27.6 mph N/A   Scattered Clouds
11:35 PM 80.6 °F 82.7 °F 66.2 °F 61% 29.77 in 10.0 mi South 18.4 mph 23.0 mph N/A   Partly Cloudy
11:55 PM 80.6 °F 82.7 °F 66.2 °F 61% 29.77 in 10.0 mi South 18.4 mph 27.6 mph N/A   Clear